Terug naar catalogus

RASSVET-1 NO. 3

ActiefCommunicatieSSO
NORAD 57170·PAYLOAD·🇷🇺 Russia
Deze satellietnaam is nog niet bevestigd door officiële bronnen.

Gelanceerd Jun 27, 2023 vanaf Vostochny Cosmodrome

Loading…

Volgende Passages (komende 24 uur)

TLE

VersSource: Space-Track

Epoch: Sep 14, 2026, 15:09 UTC

1 57170U 23091E   26257.63137008  .00006499  00000-0  25992-3 0  9993
2 57170  97.5020 319.4749 0010073 133.0157 227.1926 15.25398167177790

Volg RASSVET-1 NO. 3 in realtime met AllMySat

Download on the App Store